Location: Hiram
(41.3130°N, 81.1440°W)
Time: 07:01:14
(UTC-04:00)

Iridium 62 - Visible Passes

Search period start: 25 May 2018 00:00
Search period end: 04 June 2018 00:00
Orbit: 761 x 764 km, 86.4° (Epoch: 24 May)

Date Brightness Start Highest point End Pass type
(mag) Time Alt. Az. Time Alt. Az. Time Alt. Az.
25 May 7.9 00:59:11 10° NE 01:02:12 15° ENE 01:03:01 15° E visible
25 May 5.8 02:37:58 10° N 02:43:02 60° W 02:43:11 60° W visible
26 May 5.8 02:00:07 10° N 02:05:15 67° E 02:05:23 67° E visible
26 May 7.7 03:42:30 10° NW 03:45:00 14° WNW 03:45:33 13° W visible
27 May 6.9 01:22:39 10° NNE 01:27:17 33° E 01:27:36 32° E visible
27 May 7.0 03:03:15 10° NNW 03:07:33 27° W 03:07:46 27° W visible
28 May 7.8 00:45:53 10° NE 00:49:09 17° ENE 00:49:50 16° E visible
28 May 6.0 02:24:55 10° NNW 02:29:56 55° W 02:29:59 55° W visible
29 May 5.8 01:47:00 10° N 01:52:10 73° E 01:52:13 73° E visible
29 May 7.9 03:29:44 10° NW 03:31:51 13° WNW 03:32:23 12° W visible
30 May 6.8 01:09:30 10° NNE 01:14:13 35° E 01:14:28 35° E visible
30 May 7.1 02:50:16 10° NNW 02:54:25 25° W 02:54:37 25° W visible
31 May 7.7 00:32:36 10° NNE 00:36:06 18° ENE 00:36:42 18° E visible
31 May 6.1 02:11:51 10° NNW 02:16:50 51° W 02:16:52 51° W visible
01 Jun 5.7 01:33:54 10° N 01:39:04 79° E 01:39:07 79° E visible
01 Jun 8.0 03:17:04 10° WNW 03:18:42 11° WNW 03:19:16 11° W visible
02 Jun 6.6 00:56:21 10° NNE 01:01:09 38° E 01:01:22 38° E visible
02 Jun 7.2 02:37:17 10° NNW 02:41:18 23° W 02:41:32 23° W visible
03 Jun 7.5 00:19:21 10° NNE 00:23:03 20° ENE 00:23:38 19° E visible
03 Jun 6.3 01:58:48 10° NNW 02:03:43 47° W 02:03:47 47° W visible
